Tracking 30995 objects as of 5-Jul-2025
HD Live streaming from Space Station
objects crossing your sky now

ATLAS AGENA R/B(2)

Track ATLAS AGENA R/B(2) now!


NORAD ID: 15422
Int'l Code: 1977-038C
Perigee: 29,116.0 km
Apogee: 41,334.4 km
Inclination: 6.8 °
Period: 1,407.1 minutes
Semi major axis: 41596 km
RCS: Unknown
Launch date: May 23, 1977
Source: United States (US)
Launch site: AIR FORCE EASTERN TEST RANGE (AFETR)

Note: This is a ROCKET BODY
Your satellite tracking list
Your tracking list is empty




NASA's NSSDC Master Catalog

Two Line Element Set (TLE):
1 15422U 77038C   25185.65104676  .00000024  00000-0  00000-0 0  9991
2 15422   6.7659 330.1374 1468682 173.8159 188.3899  1.02334568 22685
Source of the keplerian elements: McCants